Flag for Germany Weather past 2 weeks in Offenburg, Baden-Württemberg, Germany

Now
44 °F

Clear.


Feels Like: 44 °F
Forecast: 44 / 68 °F
Wind: 1 mph from South

Location: Lahr


UV Index: 3 (Moderate)

Visibility: 6 mi


Pressure: 29.66 "Hg

Humidity: 92%

Dew point: 42 °F

Location of OffenburgLocation

Historic Weather in Offenburg

°F

Offenburg temperature yesterday

Maximum temperature yesterday: 64 °F (at 6:00 PM)
Minimum temperature yesterday: 40 °F (at 6:00 AM)
Average temperature yesterday: 51 °F

Past Weeks' High & Low Weather Summary

 TemperatureHumidityPressure
High73 °F (Apr 7, 6:00 PM)99% (Apr 6, 7:00 AM)30.39 "Hg (Apr 6, 7:00 AM)
Low31 °F (Apr 17, 6:00 AM)28% (Apr 17, 3:00 PM)29.63 "Hg (Apr 20, 6:00 PM)
Average52 °F67%30.08 "Hg
* Reported Apr 6 1:00 AM — Apr 21 1:00 AM, Offenburg, Weather by CustomWeather, © 2014

Note: Actual official high and low records may vary slightly from our data, if they occured in-between our weather recording intervals... More about our weather records

Advertising

Historic Weather Conditions — Data for Previous 24 hours

 ConditionsComfort  
Time TempWeatherWind HumidityBarometerVisibility
1:00 AM
Apr 21
48 °FClear.1 mph90%29.67 "Hg7 mi
12:00 AM50 °FPassing clouds.1 mph87%29.67 "Hg6 mi
11:00 PM
Apr 20
50 °FFog.2 mph91%29.67 "Hg4 mi
10:00 PM51 °FClear.1 mph85%29.66 "Hg5 mi
9:00 PM55 °FPassing clouds.No wind76%29.65 "Hg16 mi
8:00 PM58 °FScattered clouds.2 mph70%29.64 "Hg13 mi
7:00 PM63 °FPassing clouds.3 mph62%29.63 "Hg14 mi
6:00 PM64 °FScattered clouds.5 mph56%29.63 "Hg12 mi
5:00 PM62 °FScattered clouds.3 mph57%29.65 "Hg9 mi
4:00 PM58 °FPartly sunny.3 mph68%29.68 "Hg7 mi
3:00 PM57 °FOvercast.1 mph68%29.70 "Hg6 mi
2:00 PM56 °FOvercast.1 mph70%29.71 "Hg7 mi
1:00 PM56 °FOvercast.2 mph70%29.71 "Hg7 mi
12:00 PM54 °FOvercast.3 mph71%29.72 "Hg7 mi
11:00 AM52 °FOvercast.2 mph74%29.72 "Hg7 mi
10:00 AM50 °FPassing clouds.7 mph82%29.73 "Hg2 mi
9:00 AM48 °FOvercast.3 mph86%29.73 "Hg8 mi
8:00 AM45 °FOvercast.1 mph93%29.73 "Hg6 mi
7:00 AM43 °FFog.2 mph96%29.73 "Hg4 mi
6:00 AM40 °FFog.1 mph97%29.74 "Hg3 mi
5:00 AM42 °FFog.2 mph93%29.74 "Hg2 mi
4:00 AM43 °FFog.3 mph96%29.74 "Hg2 mi
3:00 AM43 °FFog.1 mph96%29.75 "Hg2 mi
2:00 AM44 °FFog.1 mph93%29.76 "Hg2 mi
Weather by CustomWeather, © 2014

See weather overview